Weather Service Report


461 
ASUS43 KMKX 181921
RWRWI 

WISCONSIN REGIONAL WEATHER ROUNDUP
NATIONAL WEATHER SERVICE MILWAUKEE/SULLIVAN WI
200 PM CDT FRI APR 18 2014

NOTE: "FAIR" INDICATES FEW OR NO CLOUDS BELOW 12,000 FEET WITH NO
SIGNIFICANT WEATHER AND/OR OBSTRUCTIONS TO VISIBILITY.

WIZ001-002-006>008-014>016-023>028-182000-
NORTHWEST WISCONSIN
  
CITY           SKY/WX    TMP DP  RH WIND       PRES   REMARKS
SUPERIOR ARPT  SUNNY     36  24  61 NE8       30.42S WCI  30          
ASHLAND        SUNNY     39  22  50 NE3       30.42S                  
HAYWARD        SUNNY     43  17  35 NE7       30.38R                  
SIREN          CLOUDY    44  20  37 E7        30.38S                  
RICE LAKE      MOSUNNY   43  24  48 S3        30.39S                  
LADYSMITH      MOSUNNY   45  19  35 CALM      30.39S                  
EAU CLAIRE     SUNNY     48  21  34 NE9       30.36F                  
MENOMONIE      PTCLDY    48  23  37 E5        30.37F                  
NEW RICHMOND   SUNNY     47  26  44 SE6       30.36F                  
OSCEOLA        MOSUNNY   44  26  50 NE9       30.39F                  
$$
 
WIZ003>005-009-010-017-018-182000-
NORTH CENTRAL WISCONSIN
  
CITY           SKY/WX    TMP DP  RH WIND       PRES   REMARKS
WOODRUFF       SUNNY     44  21  40 NW7       30.36S                  
RHINELANDER    SUNNY     39  20  46 W7        30.36S WCI  34          
EAGLE RIVER    SUNNY     37  19  48 N7        30.36S WCI  32          
LAND O LAKES   MOSUNNY   38  23  55 N7        30.37S WCI  32          
PHILLIPS       MOSUNNY   39  20  47 N12       30.36S WCI  31          
TOMAHAWK       SUNNY     41  16  35 CALM      30.36S                  
MEDFORD        PTSUNNY   42  20  41 N7        30.35F                  
MERRILL        SUNNY     43  21  40 CALM      30.35S                  
$$
 
WIZ029-030-035-036-043>047-182000-
CENTRAL WISCONSIN
  
CITY           SKY/WX    TMP DP  RH WIND       PRES   REMARKS
WAUSAU         SUNNY     46  20  35 N10       30.34S                  
MOSINEE        SUNNY     45  25  45 N9        30.37S                  
MARSHFIELD     SUNNY     47  24  40 N9        30.34F                  
STEVENS POINT  MOSUNNY   46  17  31 N10       30.35S                  
WAUPACA        MOSUNNY   52  19  28 N9        30.36R                  
WAUTOMA        SUNNY     51  22  32 NW7       30.35F                  
WISC RAPIDS    SUNNY     50  20  30 VRB7      30.36F                  
CAMP DOUGLAS   SUNNY     52  24  34 W5        30.35F                  
$$
 
WIZ011>013-019>022-031-037>040-048>050-182000-
NORTHEAST WISCONSIN
  
CITY           SKY/WX    TMP DP  RH WIND       PRES   REMARKS
ANTIGO         SUNNY     41  22  47 N8        30.35S                  
STURGEON BAY   SUNNY     43  25  49 NE9       30.38S                  
GREEN BAY      NOT AVBL                                               
MANITOWOC      SUNNY     42  32  67 SE12      30.37S                  
APPLETON       MOSUNNY   46  27  46 N10       30.36S                  
CLINTONVILLE   SUNNY     46  21  36 N6        30.36R                  
OSHKOSH        SUNNY     45  29  53 E6        30.37R                  
$$
 
WIZ032>034-041-042-053>061-182000-
SOUTHWEST WISCONSIN
  
CITY           SKY/WX    TMP DP  RH WIND       PRES   REMARKS
LA CROSSE      SUNNY     51  26  37 W9        30.36S                  
SPARTA         SUNNY     52  21  29 CALM      30.36S                  
VIROQUA        FAIR      49  27  42 N5        30.35R                  
BOSCOBEL       SUNNY     55  21  26 VRB7      30.35S                  
PRAIRIE DU CHI SUNNY     53  20  27 SW7       30.35R                  
PLATTEVILLE    FAIR      53  28  38 CALM      30.34F                  
$$

WIZ056-057-062-063-064-067-068-182000-
SOUTH CENTRAL WISCONSIN
  
CITY           SKY/WX    TMP DP  RH WIND       PRES   REMARKS
BARABOO/DELLS  SUNNY     49  23  36 CALM      30.34F                  
LONE ROCK      SUNNY     52  28  39 VRB3      30.35S                  
WATERTOWN      SUNNY     49  31  50 NW3       30.35S                  
MADISON        MOSUNNY   52  28  39 VRB7      30.35F                  
MIDDLETON      FAIR      52  27  38 E3        30.35F                  
MONROE         SUNNY     54  27  35 CALM      30.32F                  
JANESVILLE     SUNNY     54  28  37 CALM      30.33F                  
$$
 
WIZ051-052-058>065-066-070>072-182000-
SOUTHEAST WISCONSIN
  
CITY           SKY/WX    TMP DP  RH WIND       PRES   REMARKS
MILWAUKEE      MOSUNNY   42  30  62 NE10      30.39R                  
WAUKESHA       NOT AVBL                                               
MILWAUKEE/TIMM SUNNY     45  28  53 E9        30.37R                  
RACINE         SUNNY     44  31  60 NE12      30.39R                  
BURLINGTON     SUNNY     53  30  42 CALM      30.34S                  
KENOSHA        SUNNY     46  33  60 E14       30.36S                  
FOND DU LAC    SUNNY     45  29  53 E7        30.37S                  
SHEBOYGAN      SUNNY     44  33  65 NE9       30.36S                  
WEST BEND      SUNNY     46  27  46 CALM      30.35S                  
JUNEAU         SUNNY     46  24  42 CALM      30.37S                  
$$

LSZ147-162-182000-
LAKE SUPERIOR
  
STATION/POSITION TIME  TEMP    WIND        PRES    WAVE
                       AIR SEA DIR/SP/G            HT/PER
                 (UTC) (F)     (DEG/KT/KT) (MB)    (FT/S)
DEVILS ISLAND    1900   34      CALM  /  1 1031.7R
PORT WING        1840   34      20/  9/ 11 1030.1S
SAXON HARBOR     1840           40/  6/  8 1030.5S
$$
 
LMZ867-665-643>646-182000-
LAKE MICHIGAN
  
STATION/POSITION TIME  TEMP    WIND        PRES    WAVE
                       AIR SEA DIR/SP/G            HT/PER
                 (UTC) (F)     (DEG/KT/KT) (MB)    (FT/S)
NORTHPORT PIER   1800   37     330/  6/  7 1028.8S
SISTER BAY       1823             CALM       N/A
KEWAUNEE LAKESHO 1800   39      70/  7/ 10 1029.1F
SHEBOYGAN LAKESH 1900   36      70/ 13/ 14 1029.5R
PORT WASHINGTON  1800   37      70/  8/ 10 1029.1S
MILWAUKEE LAKESH 1900   36      50/ 10/ 12   N/A
KENOSHA   LAKESH 1900   36      40/ 12/ 14   N/A
$$

TC  - TEMPERATURE IN CELSIUS
VSB - VISIBILITY IN STATUTE MILES
WCI - WIND CHILL INDEX
HX  - HEAT INDEX


Return to Home page


Western Regional Climate Center, wrcc@dri.edu